Date String (YYYY-MM-DD hh:mm:ss) UTC,Instrument flags,Ambient pressure (hPa),Sample flow (lpm),Bypass flow (lpm),Sample temperature (°C),Ambient temperature (°C),ASC tube jacket temperature (°C),LED temperature (°C),Box temperature (°C),Sample RH (%),Span deviation,Mass concentration (μg/m³),Mass concentration (μg/m³),Mass concentration (μg/m³)
DateTimeUTC,F1_M11,P_M11,Q1_M11,Q2_M11,T1_M11,T2_M11,T3_M11,T4_M11,T5_M11,U1_M11,ZSPAN_M11,X2_M11,X0_M11,X1_M11
2023-01-06 12:00:00,,0820.7,5.01,0.00,22.4,20.9,00.0,31.3,24.2,08.4,0000.0,0001.96,0002.65,0001.70
2023-01-06 12:01:00,,0820.7,5.01,0.00,22.4,20.9,00.0,31.3,24.1,08.4,0000.0,0001.91,0002.73,0001.67
2023-01-06 12:02:00,,0820.7,5.00,0.00,22.4,20.9,00.0,31.3,24.1,08.5,0000.0,0001.88,0002.74,0001.64
2023-01-06 12:03:00,,0820.7,5.01,0.00,22.4,20.9,00.0,31.3,24.1,08.5,0000.0,0001.78,0002.55,0001.60
2023-01-06 12:04:00,,0820.7,4.99,0.00,22.4,20.9,00.0,31.3,24.1,08.5,0000.0,0001.75,0002.52,0001.55
2023-01-06 12:05:00,,0820.6,4.98,0.00,22.3,20.9,00.0,31.2,24.0,08.5,0000.0,0001.77,0002.60,0001.53
2023-01-06 12:06:00,,0820.6,5.01,0.00,22.3,20.9,00.0,31.2,24.0,08.5,0000.0,0001.77,0002.63,0001.50
2023-01-06 12:07:00,,0820.6,5.01,0.00,22.4,21.3,00.0,31.2,24.1,08.5,0000.0,0001.77,0003.05,0001.48
2023-01-06 12:08:00,,0820.6,5.00,0.00,22.5,22.3,00.0,31.2,24.4,08.4,0000.0,0001.74,0003.32,0001.46
2023-01-06 12:09:00,,0820.6,4.99,0.00,22.6,22.8,00.0,31.2,24.5,08.3,0000.0,0001.69,0003.28,0001.42
2023-01-06 12:10:00,,0820.6,4.99,0.00,22.6,22.4,00.0,31.3,24.5,08.4,0000.0,0001.64,0003.12,0001.38
2023-01-06 12:11:00,,0820.6,5.00,0.00,22.6,22.0,00.0,31.3,24.4,08.4,0000.0,0001.67,0003.18,0001.39
2023-01-06 12:12:00,,0820.6,5.00,0.00,22.6,21.7,00.0,31.3,24.3,08.5,0000.0,0001.72,0003.83,0001.42
2023-01-06 12:13:00,,0820.6,5.01,0.00,22.5,21.4,00.0,31.3,24.2,08.5,0000.0,0001.75,0004.26,0001.46
2023-01-06 12:14:00,,0820.6,5.01,0.00,22.5,21.2,00.0,31.3,24.2,08.5,0000.0,0001.80,0004.37,0001.49
2023-01-06 12:15:00,,0820.6,5.01,0.00,22.5,21.1,00.0,31.3,24.1,08.6,0000.0,0001.84,0004.46,0001.52
2023-01-06 12:16:00,,0820.6,4.99,0.00,22.5,21.1,00.0,31.3,24.1,08.6,0000.0,0001.83,0004.53,0001.54
2023-01-06 12:17:00,,0820.6,5.00,0.00,22.4,21.0,00.0,31.3,24.1,08.6,0000.0,0001.78,0004.57,0001.54
2023-01-06 12:18:00,,0820.6,5.00,0.00,22.4,20.9,00.0,31.3,24.1,08.5,0000.0,0001.74,0004.10,0001.52
2023-01-06 12:19:00,,0820.6,5.00,0.00,22.4,20.8,00.0,31.3,24.1,08.5,0000.0,0001.72,0003.77,0001.50
2023-01-06 12:20:00,,0820.6,5.00,0.00,22.4,20.8,00.0,31.3,24.0,08.5,0000.0,0001.69,0003.69,0001.49
2023-01-06 12:21:00,,0820.6,5.00,0.00,22.3,20.7,00.0,31.3,24.0,08.5,0000.0,0001.67,0003.68,0001.48
2023-01-06 12:22:00,,0820.6,5.01,0.00,22.3,20.7,00.0,31.2,24.0,08.6,0000.0,0001.62,0003.59,0001.45
2023-01-06 12:23:00,,0820.6,5.00,0.00,22.3,21.2,00.0,31.2,24.1,08.8,0000.0,0001.60,0002.87,0001.42
2023-01-06 12:24:00,,0820.6,5.01,0.00,22.4,22.3,00.0,31.2,24.3,08.9,0000.0,0001.54,0002.34,0001.38
2023-01-06 12:25:00,,0820.6,4.99,0.00,22.6,22.9,00.0,31.2,24.5,08.8,0000.0,0001.51,0002.29,0001.36
2023-01-06 12:26:00,,0820.6,5.00,0.00,22.6,22.5,00.0,31.3,24.5,09.1,0000.0,0001.53,0002.31,0001.33
2023-01-06 12:27:00,,0820.6,5.00,0.00,22.6,22.1,00.0,31.3,24.4,09.7,0000.0,0001.51,0002.20,0001.31
2023-01-06 12:28:00,,0820.6,5.00,0.00,22.6,21.6,00.0,31.3,24.3,09.7,0000.0,0001.52,0002.12,0001.31
2023-01-06 12:29:00,,0820.6,5.01,0.00,22.5,21.3,00.0,31.3,24.2,09.7,0000.0,0001.55,0002.23,0001.32
2023-01-06 12:30:00,,0820.6,5.00,0.00,22.5,21.0,00.0,31.3,24.1,09.6,0000.0,0001.56,0002.24,0001.33
2023-01-06 12:31:00,,0820.6,5.00,0.00,22.4,20.8,00.0,31.3,24.1,09.5,0000.0,0001.61,0002.44,0001.36
2023-01-06 12:32:00,,0820.6,4.99,0.00,22.4,20.8,00.0,31.3,24.1,09.3,0000.0,0001.67,0003.01,0001.39
2023-01-06 12:33:00,,0820.6,5.00,0.00,22.4,20.8,00.0,31.3,24.1,09.3,0000.0,0001.71,0003.08,0001.42
2023-01-06 12:34:00,,0820.6,5.00,0.00,22.4,20.9,00.0,31.3,24.1,09.2,0000.0,0001.68,0003.03,0001.43
2023-01-06 12:35:00,,0820.6,5.01,0.00,22.4,20.9,00.0,31.3,24.1,09.2,0000.0,0001.68,0003.00,0001.45
2023-01-06 12:36:00,,0820.6,5.00,0.00,22.4,21.0,00.0,31.2,24.1,09.3,0000.0,0001.68,0002.99,0001.45
2023-01-06 12:37:00,,0820.6,4.99,0.00,22.4,21.0,00.0,31.2,24.1,09.2,0000.0,0001.63,0002.87,0001.45
2023-01-06 12:38:00,,0820.6,4.99,0.00,22.3,20.9,00.0,31.2,24.0,09.2,0000.0,0001.63,0002.87,0001.45
2023-01-06 12:39:00,,0820.6,5.01,0.00,22.3,20.9,00.0,31.2,24.0,09.2,0000.0,0001.63,0002.75,0001.45
2023-01-06 12:40:00,,0820.6,5.01,0.00,22.3,20.9,00.0,31.2,24.0,09.1,0000.0,0001.64,0002.70,0001.44
2023-01-06 12:41:00,,0820.6,5.00,0.00,22.3,21.0,00.0,31.2,24.0,09.2,0000.0,0001.65,0002.86,0001.43
2023-01-06 12:42:00,,0820.6,5.00,0.00,22.3,21.0,00.0,31.2,24.0,09.4,0000.0,0001.61,0002.67,0001.40
2023-01-06 12:43:00,,0820.6,5.00,0.00,22.3,21.0,00.0,31.2,24.0,09.5,0000.0,0001.57,0002.14,0001.39
2023-01-06 12:44:00,,0820.6,5.00,0.00,22.3,21.1,00.0,31.2,24.0,09.8,0000.0,0001.54,0002.09,0001.37
2023-01-06 12:45:00,,0820.6,5.01,0.00,22.4,22.0,00.0,31.1,24.3,09.9,0000.0,0001.55,0002.12,0001.38
2023-01-06 12:46:00,,0820.7,4.99,0.00,22.5,22.8,00.0,31.1,24.5,09.7,0000.0,0001.52,0002.06,0001.36
2023-01-06 12:47:00,,0820.7,4.99,0.00,22.6,22.6,00.0,31.2,24.5,09.5,0000.0,0001.50,0002.04,0001.34
2023-01-06 12:48:00,,0820.6,5.00,0.00,22.6,22.2,00.0,31.2,24.5,09.5,0000.0,0001.51,0002.09,0001.34
2023-01-06 12:49:00,,0820.7,5.01,0.00,22.6,22.0,00.0,31.3,24.4,09.4,0000.0,0001.50,0002.06,0001.33
2023-01-06 12:50:00,,0820.6,5.00,0.00,22.6,21.8,00.0,31.3,24.4,09.4,0000.0,0001.49,0002.05,0001.33
2023-01-06 12:51:00,,0820.6,4.99,0.00,22.6,21.7,00.0,31.3,24.3,09.5,0000.0,0001.47,0002.85,0001.32
2023-01-06 12:52:00,,0820.6,5.00,0.00,22.6,21.6,00.0,31.3,24.3,09.4,0000.0,0001.44,0002.72,0001.30
2023-01-06 12:53:00,,0820.6,5.01,0.00,22.6,21.4,00.0,31.3,24.3,09.5,0000.0,0001.44,0002.75,0001.31
2023-01-06 12:54:00,,0820.6,5.01,0.00,22.6,21.3,00.0,31.3,24.3,09.5,0000.0,0001.47,0002.82,0001.31
2023-01-06 12:55:00,,0820.7,5.00,0.00,22.5,21.2,00.0,31.3,24.2,09.7,0000.0,0001.47,0002.81,0001.31
2023-01-06 12:56:00,,0820.6,4.99,0.00,22.5,21.1,00.0,31.3,24.2,09.8,0000.0,0001.44,0002.77,0001.29
2023-01-06 12:57:00,,0820.6,5.00,0.00,22.5,21.1,00.0,31.3,24.2,09.9,0000.0,0001.46,0002.83,0001.28
2023-01-06 12:58:00,,0820.6,5.00,0.00,22.5,21.1,00.0,31.3,24.2,09.8,0000.0,0001.46,0002.84,0001.28
2023-01-06 12:59:00,,0820.7,4.99,0.00,22.5,21.1,00.0,31.3,24.2,09.9,0000.0,0001.43,0002.75,0001.27
